Time,TemperatureF,DewpointF,PressureIn,WindDirection,WindDirectionDegrees,WindSpeedMPH,WindSpeedGustMPH,Humidity,HourlyPrecipIn,Conditions,Clouds,dailyrainin,SoftwareType,DateUTC
2016-02-13 00:36:00,43.0,7.0,29.97,North,-9999,-999.9,-999.0,22,-99.99,,,-99.99,,2016-02-13 08:36:00,
2016-02-13 00:43:00,43.0,7.0,29.97,North,-9999,-999.9,-999.0,22,-99.99,,,-99.99,,2016-02-13 08:43:00,
2016-02-13 00:54:00,43.0,7.0,29.97,North,-9999,-999.9,-999.0,22,-99.99,,,-99.99,,2016-02-13 08:54:00,
2016-02-13 01:43:00,43.0,8.0,29.96,North,-9999,-999.9,-999.0,23,-99.99,,,-99.99,,2016-02-13 09:43:00,
2016-02-13 01:54:00,42.0,5.0,29.96,North,-9999,-999.9,-999.0,21,-99.99,,,-99.99,,2016-02-13 09:54:00,
2016-02-13 02:36:00,42.0,5.0,29.96,North,-9999,-999.9,-999.0,21,-99.99,,,-99.99,,2016-02-13 10:36:00,
2016-02-13 02:44:00,42.0,5.0,29.96,North,-9999,-999.9,-999.0,21,-99.99,,,-99.99,,2016-02-13 10:44:00,
2016-02-13 03:34:00,42.0,3.0,29.96,North,-9999,-999.9,-999.0,19,-99.99,,,-99.99,,2016-02-13 11:34:00,
2016-02-13 03:44:00,42.0,3.0,29.96,North,-9999,-999.9,-999.0,19,-99.99,,,-99.99,,2016-02-13 11:44:00,
2016-02-13 04:33:00,41.0,2.0,29.97,North,-9999,-999.9,-999.0,19,-99.99,,,-99.99,,2016-02-13 12:33:00,
2016-02-13 04:46:00,41.0,2.0,29.97,North,-9999,-999.9,-999.0,19,-99.99,,,-99.99,,2016-02-13 12:46:00,
2016-02-13 04:54:00,42.0,4.0,29.98,North,-9999,-999.9,-999.0,20,-99.99,,,-99.99,,2016-02-13 12:54:00,
2016-02-13 05:34:00,42.0,4.0,29.98,North,-9999,-999.9,-999.0,20,-99.99,,,-99.99,,2016-02-13 13:34:00,
2016-02-13 05:44:00,42.0,4.0,29.98,North,-9999,-999.9,-999.0,20,-99.99,,,-99.99,,2016-02-13 13:44:00,
2016-02-13 05:54:00,42.0,4.0,30.04,North,-9999,-999.9,-999.0,20,-99.99,,,-99.99,,2016-02-13 13:54:00,
2016-02-13 06:33:00,42.0,4.0,30.04,North,-9999,-999.9,-999.0,20,-99.99,,,-99.99,,2016-02-13 14:33:00,
2016-02-13 06:44:00,42.0,4.0,30.04,North,-9999,-999.9,-999.0,20,-99.99,,,-99.99,,2016-02-13 14:44:00,
2016-02-13 07:33:00,41.0,5.0,30.10,North,-9999,-999.9,-999.0,22,-99.99,,,-99.99,,2016-02-13 15:33:00,
2016-02-13 07:44:00,41.0,5.0,30.10,North,-9999,-999.9,-999.0,22,-99.99,,,-99.99,,2016-02-13 15:44:00,
2016-02-13 08:54:00,49.0,12.0,30.05,North,-9999,-999.9,-999.0,22,-99.99,,,-99.99,,2016-02-13 16:54:00,
2016-02-13 09:36:00,49.0,12.0,30.05,North,-9999,-999.9,-999.0,22,-99.99,,,-99.99,,2016-02-13 17:36:00,
2016-02-13 11:33:00,55.0,12.0,30.00,North,-9999,-999.9,-999.0,18,-99.99,,,-99.99,,2016-02-13 19:33:00,
2016-02-13 11:44:00,55.0,12.0,30.00,North,-9999,-999.9,-999.0,18,-99.99,,,-99.99,,2016-02-13 19:44:00,
2016-02-13 11:53:00,55.0,12.0,30.00,North,-9999,-999.9,-999.0,18,-99.99,,,-99.99,,2016-02-13 19:53:00,
2016-02-13 11:54:00,55.0,14.0,29.98,North,-9999,-999.9,-999.0,19,-99.99,,,-99.99,,2016-02-13 19:54:00,
2016-02-13 12:36:00,55.0,14.0,29.98,North,-9999,-999.9,-999.0,19,-99.99,,,-99.99,,2016-02-13 20:36:00,
2016-02-13 12:46:00,55.0,14.0,29.98,North,-9999,-999.9,-999.0,19,-99.99,,,-99.99,,2016-02-13 20:46:00,
2016-02-13 13:34:00,55.0,14.0,29.97,North,-9999,-999.9,-999.0,19,-99.99,,,-99.99,,2016-02-13 21:34:00,
2016-02-13 13:43:00,55.0,14.0,29.97,North,-9999,-999.9,-999.0,19,-99.99,,,-99.99,,2016-02-13 21:43:00,
2016-02-13 13:54:00,57.0,14.0,29.96,North,-9999,-999.9,-999.0,18,-99.99,,,-99.99,,2016-02-13 21:54:00,
2016-02-13 14:34:00,57.0,14.0,29.96,North,-9999,-999.9,-999.0,18,-99.99,,,-99.99,,2016-02-13 22:34:00,
2016-02-13 14:44:00,57.0,14.0,29.96,North,-9999,-999.9,-999.0,18,-99.99,,,-99.99,,2016-02-13 22:44:00,
2016-02-13 15:44:00,56.0,16.0,29.96,North,-9999,-999.9,-999.0,20,-99.99,,,-99.99,,2016-02-13 23:44:00,